GW1010 Weather Reports


Display with metric or nautical units.
time (UTC)temp
F
wind
direction
speed
MPH
gust
MPH
rain 1hr
in
rain 24hr
in
rain mn
in
humidity
%
barometer
mb
20260902030057 59 141 0.0 3.0 0.00 0.00 0.00 78 1016.4
20260902025528 59 97 0.0 4.0 0.00 0.00 0.00 77 1016.4
20260902025029 59 146 0.0 6.0 0.00 0.00 0.00 76 1016.4
20260902024558 59 118 2.0 6.0 0.00 0.00 0.00 76 1016.4
20260902024025 60 212 2.0 6.0 0.00 0.00 0.00 75 1016.4
20260902023529 60 81 1.0 6.0 0.00 0.00 0.00 75 1016.3
20260902023042 60 233 1.0 6.0 0.00 0.00 0.00 74 1016.3
20260902022529 60 202 2.0 5.0 0.00 0.00 0.00 74 1016.2
20260902022029 61 166 1.0 7.0 0.00 0.00 0.00 73 1016.3
20260902021601 61 229 2.0 8.0 0.00 0.00 0.00 73 1016.2
20260902021028 62 0 1.0 8.0 0.00 0.00 0.00 73 1016.2
20260902020528 62 252 2.0 8.0 0.00 0.00 0.00 72 1016.1
20260902020057 62 115 2.0 8.0 0.00 0.00 0.00 71 1016.2
20260902015528 63 333 1.0 5.0 0.00 0.00 0.00 71 1016.2
20260902015028 63 177 1.0 5.0 0.00 0.00 0.00 70 1016.1
20260902014547 64 116 0.0 6.0 0.00 0.00 0.00 69 1016.2
20260902014027 64 260 2.0 6.0 0.00 0.00 0.00 68 1016.3
20260902013528 65 229 1.0 6.0 0.00 0.00 0.00 66 1016.3
20260902013043 65 260 2.0 6.0 0.00 0.00 0.00 65 1016.4
20260902012528 66 221 1.0 6.0 0.00 0.00 0.00 64 1016.3
20260902012028 66 238 1.0 6.0 0.00 0.00 0.00 62 1016.3
20260902011552 67 236 1.0 6.0 0.00 0.00 0.00 61 1016.2
20260902011032 68 229 1.0 5.0 0.00 0.00 0.00 60 1016.2
20260902010528 68 236 2.0 8.0 0.00 0.00 0.00 60 1016.2
20260902010050 68 219 2.0 8.0 0.00 0.00 0.00 59 1016.2
20260902005528 69 141 3.0 8.0 0.00 0.00 0.00 57 1016.3
20260902005026 69 133 1.0 4.0 0.00 0.00 0.00 57 1016.3
20260902004549 69 0 1.0 9.0 0.00 0.00 0.00 57 1016.2
20260902004028 69 127 2.0 9.0 0.00 0.00 0.00 57 1016.1
20260902003528 69 250 1.0 9.0 0.00 0.00 0.00 58 1016.1
20260902003047 69 240 3.0 9.0 0.00 0.00 0.00 56 1016.1
20260902002527 69 129 2.0 7.0 0.00 0.00 0.00 56 1016.0
20260902002031 70 112 2.0 7.0 0.00 0.00 0.00 55 1016.0
20260902001543 70 217 1.0 9.0 0.00 0.00 0.00 56 1015.9
20260902001027 70 97 3.0 9.0 0.00 0.00 0.00 55 1016.0
20260902000530 70 98 2.0 9.0 0.00 0.00 0.00 53 1016.0
20260902000045 70 82 3.0 9.0 0.00 0.00 0.00 53 1016.0
20260901235529 71 58 2.0 6.0 0.00 0.00 0.00 53 1016.0
20260901235029 71 117 3.0 8.0 0.00 0.00 0.00 51 1016.1
20260901234554 71 90 3.0 8.0 0.00 0.00 0.00 52 1016.0
20260901234029 72 79 2.0 10.0 0.00 0.00 0.00 52 1016.1
20260901233526 72 64 2.0 10.0 0.00 0.00 0.00 51 1016.0
20260901233049 72 156 1.0 9.0 0.00 0.00 0.00 50 1016.1
20260901232532 72 259 3.0 8.0 0.00 0.00 0.00 48 1015.9
20260901232028 73 123 3.0 7.0 0.00 0.00 0.00 47 1016.0
20260901231545 74 148 1.0 7.0 0.00 0.00 0.00 45 1016.0
20260901231027 74 64 1.0 7.0 0.00 0.00 0.00 45 1016.1
20260901230529 74 84 2.0 8.0 0.00 0.00 0.00 45 1016.1
20260901230056 74 121 2.0 8.0 0.00 0.00 0.00 45 1016.1
20260901225530 74 153 2.0 6.0 0.00 0.00 0.00 44 1016.0
20260901225029 74 77 3.0 10.0 0.00 0.00 0.00 44 1016.1
20260901224550 74 358 2.0 10.0 0.00 0.00 0.00 45 1016.0
20260901224031 74 238 3.0 8.0 0.00 0.00 0.00 46 1016.0
20260901223527 74 20 2.0 6.0 0.00 0.00 0.00 46 1016.0
20260901223101 75 314 1.0 5.0 0.00 0.00 0.00 47 1016.1
20260901222525 75 92 2.0 7.0 0.00 0.00 0.00 46 1016.1
20260901222028 74 78 1.0 7.0 0.00 0.00 0.00 47 1016.2
20260901221547 74 329 2.0 7.0 0.00 0.00 0.00 46 1016.2
20260901221028 74 107 2.0 7.0 0.00 0.00 0.00 45 1016.3
20260901220530 74 281 1.0 8.0 0.00 0.00 0.00 46 1016.4
20260901215527 74 71 3.0 7.0 0.00 0.00 0.00 45 1016.4
20260901215027 74 281 1.0 10.0 0.00 0.00 0.00 45 1016.5
20260901214553 74 122 3.0 10.0 0.00 0.00 0.00 46 1016.6
20260901214029 75 239 1.0 7.0 0.00 0.00 0.00 47 1016.7
20260901213528 74 204 3.0 7.0 0.00 0.00 0.00 45 1016.6
20260901213052 74 264 1.0 7.0 0.00 0.00 0.00 47 1016.7
20260901212526 74 207 1.0 7.0 0.00 0.00 0.00 48 1016.7
20260901212029 74 260 2.0 6.0 0.00 0.00 0.00 46 1016.7
20260901211548 75 172 1.0 8.0 0.00 0.00 0.00 47 1016.7
20260901211027 75 245 2.0 8.0 0.00 0.00 0.00 47 1016.7
20260901210527 75 262 2.0 7.0 0.00 0.00 0.00 47 1016.7
20260901210043 75 320 2.0 7.0 0.00 0.00 0.00 45 1016.8
20260901205527 75 307 1.0 6.0 0.00 0.00 0.00 46 1016.8
20260901205028 76 209 2.0 5.0 0.00 0.00 0.00 46 1016.9
20260901204543 76 212 2.0 4.0 0.00 0.00 0.00 44 1017.0
20260901204027 76 320 2.0 5.0 0.00 0.00 0.00 46 1017.0
20260901203527 76 203 2.0 9.0 0.00 0.00 0.00 46 1016.9
20260901203053 76 210 2.0 9.0 0.00 0.00 0.00 44 1016.9
20260901202528 76 125 2.0 9.0 0.00 0.00 0.00 47 1016.8
20260901202029 76 173 2.0 8.0 0.00 0.00 0.00 48 1016.8
20260901201553 76 235 1.0 8.0 0.00 0.00 0.00 48 1016.9
20260901201028 77 217 2.0 6.0 0.00 0.00 0.00 48 1016.9
20260901200527 77 238 1.0 9.0 0.00 0.00 0.00 47 1016.8
20260901200047 76 245 2.0 9.0 0.00 0.00 0.00 47 1016.9
20260901195527 77 305 1.0 5.0 0.00 0.00 0.00 47 1016.9
20260901195028 76 351 1.0 5.0 0.00 0.00 0.00 47 1017.0
20260901194555 76 126 2.0 5.0 0.00 0.00 0.00 47 1017.0
20260901194028 75 101 1.0 3.0 0.00 0.00 0.00 47 1017.0
20260901193529 75 195 0.0 4.0 0.00 0.00 0.00 49 1017.1
20260901193055 74 121 2.0 4.0 0.00 0.00 0.00 49 1017.0
20260901192528 73 0 1.0 3.0 0.00 0.00 0.00 50 1017.1
20260901192028 73 221 2.0 3.0 0.00 0.00 0.00 50 1017.2
20260901191604 73 347 1.0 4.0 0.00 0.00 0.00 52 1017.1
20260901191028 72 15 1.0 6.0 0.00 0.00 0.00 53 1017.2
20260901190530 72 19 2.0 6.0 0.00 0.00 0.00 53 1017.3
20260901190045 71 12 1.0 4.0 0.00 0.00 0.00 54 1017.2
20260901185528 71 353 1.0 5.0 0.00 0.00 0.00 55 1017.3
20260901185028 71 293 2.0 5.0 0.00 0.00 0.00 53 1017.3
20260901184607 71 0 0.0 4.0 0.00 0.00 0.00 54 1017.2
20260901184032 71 329 1.0 3.0 0.00 0.00 0.00 55 1017.3
20260901183529 71 0 1.0 3.0 0.00 0.00 0.00 56 1017.4
20260901183049 70 0 0.0 5.0 0.00 0.00 0.00 56 1017.4
20260901182530 69 0 1.0 5.0 0.00 0.00 0.00 57 1017.6
20260901182032 70 0 1.0 5.0 0.00 0.00 0.00 56 1017.5
20260901181556 69 0 0.0 5.0 0.00 0.00 0.00 58 1017.5
20260901181029 69 322 2.0 5.0 0.00 0.00 0.00 57 1017.5
20260901180531 69 345 1.0 3.0 0.00 0.00 0.00 57 1017.5
20260901180052 69 0 0.0 2.0 0.00 0.00 0.00 58 1017.7
20260901175529 69 342 1.0 3.0 0.00 0.00 0.00 58 1017.7
20260901175029 68 278 0.0 4.0 0.00 0.00 0.00 60 1017.6
20260901174557 68 291 1.0 5.0 0.00 0.00 0.00 60 1017.6
20260901174028 67 0 1.0 5.0 0.00 0.00 0.00 61 1017.7
20260901173529 67 326 2.0 4.0 0.00 0.00 0.00 59 1017.7
20260901173046 68 323 2.0 4.0 0.00 0.00 0.00 60 1017.7
20260901172529 68 287 0.0 2.0 0.00 0.00 0.00 59 1017.6
20260901172028 67 0 0.0 2.0 0.00 0.00 0.00 63 1017.6
20260901171545 66 0 0.0 2.0 0.00 0.00 0.00 64 1017.6
20260901171032 65 155 0.0 6.0 0.00 0.00 0.00 65 1017.5
20260901170530 65 113 0.0 6.0 0.00 0.00 0.00 66 1017.5
20260901170054 65 327 2.0 5.0 0.00 0.00 0.00 65 1017.5
20260901165529 65 117 1.0 4.0 0.00 0.00 0.00 65 1017.4
20260901165031 65 0 0.0 2.0 0.00 0.00 0.00 69 1017.5
20260901164554 64 229 0.0 3.0 0.00 0.00 0.00 69 1017.4
20260901164029 63 0 0.0 3.0 0.00 0.00 0.00 71 1017.5
20260901163528 62 310 0.0 2.0 0.00 0.00 0.00 72 1017.6
20260901163046 61 353 0.0 4.0 0.00 0.00 0.00 74 1017.5
20260901162526 61 297 1.0 4.0 0.00 0.00 0.00 73 1017.6
20260901162025 60 314 0.0 4.0 0.00 0.00 0.00 74 1017.5
20260901161600 60 316 0.0 2.0 0.00 0.00 0.00 74 1017.5
20260901161029 61 0 0.0 1.0 0.00 0.00 0.00 75 1017.4
20260901160525 60 0 0.0 0.0 0.00 0.00 0.00 78 1017.5
20260901155525 58 0 0.0 0.0 0.00 0.00 0.00 81 1017.4
20260901155030 58 0 0.0 0.0 0.00 0.00 0.00 81 1017.4
20260901154549 58 0 0.0 0.0 0.00 0.00 0.00 83 1017.4
20260901154028 57 0 0.0 0.0 0.00 0.00 0.00 83 1017.3
20260901153532 57 0 0.0 0.0 0.00 0.00 0.00 85 1017.4
20260901153043 57 0 0.0 0.0 0.00 0.00 0.00 86 1017.4
20260901152525 56 0 0.0 0.0 0.00 0.00 0.00 87 1017.4
20260901152026 56 0 0.0 0.0 0.00 0.00 0.00 88 1017.5
20260901151545 55 0 0.0 0.0 0.00 0.00 0.00 89 1017.4
20260901151025 55 0 0.0 0.0 0.00 0.00 0.00 90 1017.3
20260901150526 54 0 0.0 0.0 0.00 0.00 0.00 91 1017.4
20260901150043 54 0 0.0 0.0 0.00 0.00 0.00 91 1017.4
20260901145529 53 0 0.0 0.0 0.00 0.00 0.00 92 1017.3
20260901145026 53 0 0.0 0.0 0.00 0.00 0.00 91 1017.2
20260901144546 53 0 0.0 0.0 0.00 0.00 0.00 91 1017.1
20260901144026 52 0 0.0 0.0 0.00 0.00 0.00 91 1017.2
20260901143526 52 0 0.0 0.0 0.00 0.00 0.00 91 1017.2
20260901143056 52 0 0.0 0.0 0.00 0.00 0.00 91 1017.1
20260901142530 52 0 0.0 0.0 0.00 0.00 0.00 91 1017.1
20260901142027 52 0 0.0 0.0 0.00 0.00 0.00 91 1017.0
20260901141548 52 0 0.0 0.0 0.00 0.00 0.00 90 1016.9
20260901141031 52 0 0.0 0.0 0.00 0.00 0.00 89 1016.8
20260901140528 52 0 0.0 0.0 0.00 0.00 0.00 89 1016.8
20260901140053 53 0 0.0 0.0 0.00 0.00 0.00 89 1016.7
20260901135526 53 0 0.0 0.0 0.00 0.00 0.00 89 1016.7
20260901135028 54 0 0.0 0.0 0.00 0.00 0.00 88 1016.6
20260901134541 54 0 0.0 0.0 0.00 0.00 0.00 88 1016.8
20260901134029 54 0 0.0 0.0 0.00 0.00 0.00 87 1016.7
20260901133529 55 0 0.0 0.0 0.00 0.00 0.00 87 1016.7
20260901133053 55 0 0.0 0.0 0.00 0.00 0.00 87 1016.7
20260901132528 55 0 0.0 0.0 0.00 0.00 0.00 86 1016.6
20260901132028 56 0 0.0 0.0 0.00 0.00 0.00 86 1016.7
20260901131552 56 0 0.0 0.0 0.00 0.00 0.00 85 1016.6
20260901131027 56 0 0.0 0.0 0.00 0.00 0.00 85 1016.6
20260901130530 56 0 0.0 1.0 0.00 0.00 0.00 85 1016.6
20260901130051 56 0 0.0 1.0 0.00 0.00 0.00 85 1016.6
20260901125528 56 0 0.0 0.0 0.00 0.00 0.00 85 1016.6
20260901125026 56 0 0.0 0.0 0.00 0.00 0.00 85 1016.5
20260901124549 56 0 0.0 0.0 0.00 0.00 0.00 85 1016.6
20260901124028 56 0 0.0 0.0 0.00 0.00 0.00 85 1016.5
20260901123528 56 0 0.0 0.0 0.00 0.00 0.00 85 1016.5
20260901123111 56 0 0.0 0.0 0.00 0.00 0.00 85 1016.4
20260901122529 56 0 0.0 0.0 0.00 0.00 0.00 85 1016.4
20260901122030 56 0 0.0 0.0 0.00 0.00 0.00 85 1016.4
20260901121553 56 177 0.0 0.0 0.00 0.00 0.00 86 1016.4
20260901121028 56 0 0.0 0.0 0.00 0.00 0.00 86 1016.3
20260901120525 55 0 0.0 0.0 0.00 0.00 0.00 86 1016.3
20260901120058 55 0 0.0 3.0 0.00 0.00 0.00 87 1016.2
20260901115528 55 0 0.0 3.0 0.00 0.00 0.00 87 1016.1
20260901115030 55 0 0.0 0.0 0.00 0.00 0.00 87 1016.1
20260901114603 55 0 0.0 0.0 0.00 0.00 0.00 86 1016.1
20260901114029 55 0 0.0 0.0 0.00 0.00 0.00 85 1016.0
20260901113530 55 0 0.0 0.0 0.00 0.00 0.00 85 1016.0
20260901113056 56 0 0.0 0.0 0.00 0.00 0.00 84 1016.1
20260901112529 56 0 0.0 0.0 0.00 0.00 0.00 84 1016.1
20260901112028 57 0 0.0 3.0 0.00 0.00 0.00 83 1016.1
20260901111605 57 0 0.0 3.0 0.00 0.00 0.00 83 1016.2
20260901111030 57 72 0.0 3.0 0.00 0.00 0.00 84 1016.1
20260901110530 57 0 0.0 3.0 0.00 0.00 0.00 84 1016.1
20260901110048 57 119 0.0 3.0 0.00 0.00 0.00 84 1016.1
20260901105529 56 0 0.0 2.0 0.00 0.00 0.00 85 1016.0
20260901105031 56 0 0.0 3.0 0.00 0.00 0.00 85 1015.9
20260901104550 56 0 0.0 4.0 0.00 0.00 0.00 86 1016.0
20260901104029 56 134 1.0 4.0 0.00 0.00 0.00 87 1016.0
20260901103530 56 160 0.0 5.0 0.00 0.00 0.00 88 1016.0
20260901103054 55 0 0.0 5.0 0.00 0.00 0.00 89 1016.0
20260901102530 55 0 0.0 1.0 0.00 0.00 0.00 90 1015.9
20260901102031 54 0 0.0 0.0 0.00 0.00 0.00 90 1015.9
20260901101553 54 0 0.0 0.0 0.00 0.00 0.00 90 1016.0
20260901101028 54 0 0.0 0.0 0.00 0.00 0.00 90 1015.9
20260901100529 54 0 0.0 0.0 0.00 0.00 0.00 91 1015.8
20260901100053 54 0 0.0 0.0 0.00 0.00 0.00 91 1015.9
20260901095528 53 0 0.0 0.0 0.00 0.00 0.00 91 1016.0
20260901095033 53 0 0.0 0.0 0.00 0.00 0.00 91 1016.0
20260901094548 53 0 0.0 0.0 0.00 0.00 0.00 91 1016.1
20260901094030 53 0 0.0 0.0 0.00 0.00 0.00 91 1016.0
20260901093529 53 0 0.0 0.0 0.00 0.00 0.00 92 1016.0
20260901093045 53 0 0.0 0.0 0.00 0.00 0.00 92 1016.0
20260901092533 52 0 0.0 0.0 0.00 0.00 0.00 92 1015.9
20260901092029 52 0 0.0 0.0 0.00 0.00 0.00 92 1016.0
20260901091549 52 0 0.0 0.0 0.00 0.00 0.00 92 1015.8
20260901091028 52 0 0.0 0.0 0.00 0.00 0.00 92 1016.0
20260901090527 52 0 0.0 0.0 0.00 0.00 0.00 92 1016.0
20260901090046 52 0 0.0 0.0 0.00 0.00 0.00 92 1015.9
20260901085527 52 0 0.0 0.0 0.00 0.00 0.00 92 1016.1
20260901085028 53 0 0.0 0.0 0.00 0.00 0.00 91 1016.1
20260901084544 53 0 0.0 0.0 0.00 0.00 0.00 92 1015.9
20260901084028 53 0 0.0 0.0 0.00 0.00 0.00 92 1015.9
20260901083529 53 0 0.0 0.0 0.00 0.00 0.00 91 1015.9
20260901083051 53 0 0.0 0.0 0.00 0.00 0.00 91 1015.9
20260901082528 53 0 0.0 0.0 0.00 0.00 0.00 91 1016.0
20260901082028 54 0 0.0 0.0 0.00 0.00 0.00 90 1015.8
20260901081550 54 0 0.0 0.0 0.00 0.00 0.00 90 1015.9
20260901081028 54 0 0.0 0.0 0.00 0.00 0.00 90 1015.8
20260901080528 54 0 0.0 0.0 0.00 0.00 0.00 90 1015.8
20260901080047 55 0 0.0 0.0 0.00 0.00 0.00 89 1015.8
20260901075531 55 0 0.0 0.0 0.00 0.00 0.00 89 1015.8
20260901075031 55 0 0.0 0.0 0.00 0.00 0.00 88 1015.6
20260901074543 55 0 0.0 0.0 0.00 0.00 0.00 88 1015.6
20260901074028 55 0 0.0 0.0 0.00 0.00 0.00 88 1015.6
20260901073528 56 0 0.0 1.0 0.00 0.00 0.00 88 1015.7
20260901073052 56 0 0.0 4.0 0.00 0.00 0.00 88 1015.7
20260901072528 56 193 0.0 4.0 0.00 0.00 0.00 88 1015.7
20260901072031 56 0 0.0 3.0 0.00 0.00 0.00 88 1015.7
20260901071555 56 128 1.0 3.0 0.00 0.00 0.00 89 1015.7
20260901071027 56 0 0.0 1.0 0.00 0.00 0.00 89 1015.7
20260901070527 56 0 0.0 1.0 0.00 0.00 0.00 89 1015.8
20260901070050 56 0 0.0 1.0 0.00 0.00 0.00 90 1015.7
20260901065528 55 0 0.0 1.0 0.00 0.00 0.00 90 1015.8
20260901065031 55 0 0.0 0.0 0.00 0.00 0.00 91 1015.7
20260901064545 55 0 0.0 1.0 0.00 0.00 0.00 91 1015.7
20260901064033 54 0 0.0 1.0 0.00 0.00 0.00 92 1015.7
20260901063529 54 0 0.0 0.0 0.00 0.00 0.00 91 1015.8
20260901063104 54 0 0.0 0.0 0.00 0.00 0.00 90 1015.8
20260901062529 54 0 0.0 0.0 0.00 0.00 0.00 90 1015.8
20260901062030 54 0 0.0 0.0 0.00 0.00 0.00 90 1015.7
20260901061558 54 0 0.0 0.0 0.00 0.00 0.00 89 1015.8
20260901061030 54 0 0.0 0.0 0.00 0.00 0.00 89 1015.7
20260901060530 55 0 0.0 0.0 0.00 0.00 0.00 89 1015.7
20260901060058 55 0 0.0 0.0 0.00 0.00 0.00 88 1015.6
20260901055528 55 0 0.0 0.0 0.00 0.00 0.00 89 1015.7
20260901055028 55 0 0.0 0.0 0.00 0.00 0.00 88 1015.6
20260901054546 55 0 0.0 1.0 0.00 0.00 0.00 88 1015.6
20260901054028 55 0 0.0 1.0 0.00 0.00 0.00 88 1015.7
20260901053533 55 0 0.0 3.0 0.00 0.00 0.00 88 1015.6
20260901053056 56 0 0.0 3.0 0.00 0.00 0.00 88 1015.6
20260901052527 56 0 0.0 2.0 0.00 0.00 0.00 88 1015.6
20260901052028 56 0 0.0 2.0 0.00 0.00 0.00 88 1015.5
20260901051551 56 187 0.0 3.0 0.00 0.00 0.00 88 1015.4
20260901051028 56 186 0.0 3.0 0.00 0.00 0.00 88 1015.5
20260901050531 56 173 0.0 2.0 0.00 0.00 0.00 88 1015.5
20260901050059 56 0 0.0 0.0 0.00 0.00 0.00 88 1015.5
20260901045532 56 0 0.0 1.0 0.00 0.00 0.00 87 1015.5
20260901045032 56 0 0.0 1.0 0.00 0.00 0.00 87 1015.5
20260901044558 56 0 0.0 1.0 0.00 0.00 0.00 86 1015.6
20260901044030 56 0 0.0 1.0 0.00 0.00 0.00 86 1015.6
20260901043528 56 0 0.0 3.0 0.00 0.00 0.00 86 1015.4
20260901043043 56 219 1.0 5.0 0.00 0.00 0.00 86 1015.3
20260901042525 56 0 0.0 5.0 0.00 0.00 0.00 85 1015.3
20260901042025 57 120 1.0 2.0 0.00 0.00 0.00 85 1015.3
20260901041542 57 142 0.0 2.0 0.00 0.00 0.00 85 1015.2
20260901041024 57 119 0.0 3.0 0.00 0.00 0.00 85 1015.3
20260901040527 57 139 1.0 3.0 0.00 0.00 0.00 84 1015.3
20260901040053 57 0 0.0 5.0 0.00 0.00 0.00 84 1015.3
20260901035527 57 93 1.0 6.0 0.00 0.00 0.00 84 1015.2
20260901035027 57 82 2.0 6.0 0.00 0.00 0.00 83 1015.1
20260901034548 57 235 1.0 8.0 0.00 0.00 0.00 83 1015.1
20260901034030 57 101 2.0 9.0 0.00 0.00 0.00 83 1015.0
20260901033528 58 0 0.0 9.0 0.00 0.00 0.00 82 1014.7
20260901033045 58 215 1.0 6.0 0.00 0.00 0.00 82 1014.6
20260901032528 58 127 1.0 6.0 0.00 0.00 0.00 81 1014.4
20260901032026 58 148 1.0 6.0 0.00 0.00 0.00 81 1014.3
20260901031542 58 11 1.0 4.0 0.00 0.00 0.00 80 1014.2
20260901031027 58 173 0.0 2.0 0.00 0.00 0.00 79 1014.1
20260901030527 59 281 0.0 3.0 0.00 0.00 0.00 79 1014.1